Weatherford, Texas, United States (76085)
Lat: 32.76N, Lon: 97.8W
Wx Zone: TXZ117
Local Info
Past Weather Observations for Sunday, December 14, 2014

NOTE: This archive is for the closest National Weather Service station to Weatherford. Information may differ from the station used for current weather conditions.

Click here for Long-term Archive

Time Weather Temperature Dewpoint Humidity Pressure Winds Precip Visibility
23:53
Partly Cloudy
61°F / 16°C 57°F / 14°C 88% 29.8 in
(1009 mb)
SW 12.7 mph
(SW 20 kph)
- 10SM
22:53
Mostly Cloudy
63°F / 17°C 57°F / 14°C 83% 29.8 in
(1009 mb)
SW 11.5 mph
(SW 19 kph)
- 10SM
21:53
Overcast
63°F / 17°C 57°F / 14°C 83% 29.8 in
(1009 mb)
SSE 12.7 mph
(SSE 20 kph)
- 10SM
20:53
Partly Cloudy
63°F / 17°C 57°F / 14°C 83% 29.8 in
(1009 mb)
S 12.7 mph
(S 20 kph)
- 10SM
19:53
Clear
63°F / 17°C 57°F / 14°C 83% 29.77 in
(1008 mb)
S 13.8 mph
(S 22 kph)
- 10SM
18:53
Clear
63°F / 17°C 57°F / 14°C 83% 29.77 in
(1008 mb)
S 13.8 mph
(S 22 kph)
- 10SM
17:53
Overcast
64°F / 18°C 59°F / 15°C 83% 29.77 in
(1008 mb)
S 10.4 mph
(S 17 kph)
- 10SM
16:53
Overcast
63°F / 17°C 59°F / 15°C 88% 29.77 in
(1008 mb)
S 15 mph
(S 24 kph)
0.00 in
(0.00 mm)
10SM
15:53
Overcast
Light Rain
61°F / 16°C 57°F / 14°C 88% 29.77 in
(1008 mb)
S 15 mph
(S 24 kph)
0.45 in
(11.43 mm)
4SM
15:37
Overcast
Rain
63°F / 17°C 59°F / 15°C 88% 29.77 in
(1008 mb)
SW 13.8 mph
(SW 22 kph)
0.31 in
(7.87 mm)
1 1/2SM
15:31
Overcast
Rain
63°F / 17°C 61°F / 16°C 94% 29.77 in
(1008 mb)
SW 15 mph
(SW 24 kph)
0.23 in
(5.84 mm)
2SM
15:25
Overcast
Light Rain
63°F / 17°C 61°F / 16°C 94% 29.77 in
(1008 mb)
SW 12.7 mph
(SW 20 kph)
0.21 in
(5.33 mm)
1/2SM
15:16
Overcast
Heavy Rain
64°F / 18°C 61°F / 16°C 88% 29.77 in
(1008 mb)
W 6.9 mph
(W 11 kph)
0.07 in
(1.78 mm)
1 3/4SM
14:53
Overcast
Light Rain
66°F / 19°C 61°F / 16°C 83% 29.77 in
(1008 mb)
S 13.8 mph
(S 22 kph)
0.00 in
(0.00 mm)
10SM
13:53
Overcast
66°F / 19°C 61°F / 16°C 83% 29.8 in
(1009 mb)
S 15 mph
(S 24 kph)
0.01 in
(0.25 mm)
10SM
13:49
Overcast
66°F / 19°C 61°F / 16°C 83% 29.8 in
(1009 mb)
SSE 17.3 mph
(SSE 28 kph)
0.01 in
(0.25 mm)
10SM
12:53
Overcast
Light Rain
63°F / 17°C 61°F / 16°C 94% 29.83 in
(1010 mb)
SSE 15 mph
(SSE 24 kph)
0.01 in
(0.25 mm)
4SM
11:53
Overcast
Light Rain
63°F / 17°C 61°F / 16°C 94% 29.89 in
(1012 mb)
S 15 mph
(S 24 kph)
0.00 in
(0.00 mm)
5SM
10:53
Overcast
Light Rain
63°F / 17°C 59°F / 15°C 88% 29.92 in
(1013 mb)
SSE 13.8 mph
(SSE 22 kph)
0.01 in
(0.25 mm)
6SM
10:45
Overcast
Light Rain
63°F / 17°C 57°F / 14°C 83% 29.95 in
(1014 mb)
SSE 11.5 mph
(SSE 19 kph)
0.01 in
(0.25 mm)
4SM
10:35
Overcast
Light Rain
63°F / 17°C 59°F / 15°C 88% 29.95 in
(1014 mb)
SSE 9.2 mph
(SSE 15 kph)
0.00 in
(0.00 mm)
8SM
10:09
Overcast
Light Rain
63°F / 17°C 57°F / 14°C 83% 29.95 in
(1014 mb)
S 13.8 mph
(S 22 kph)
0.00 in
(0.00 mm)
7SM
09:53
Overcast
63°F / 17°C 57°F / 14°C 83% 29.95 in
(1014 mb)
S 9.2 mph
(S 15 kph)
- 10SM
08:53
Overcast
63°F / 17°C 55°F / 13°C 77% 29.92 in
(1013 mb)
SSE 11.5 mph
(SSE 19 kph)
0.00 in
(0.00 mm)
10SM
08:51
Overcast
63°F / 17°C 55°F / 13°C 77% 29.92 in
(1013 mb)
SSE 13.8 mph
(SSE 22 kph)
0.00 in
(0.00 mm)
10SM
08:37
Mostly Cloudy
61°F / 16°C 55°F / 13°C 83% 29.92 in
(1013 mb)
SSE 13.8 mph
(SSE 22 kph)
0.00 in
(0.00 mm)
10SM
07:53
Overcast
61°F / 16°C 55°F / 13°C 83% 29.92 in
(1013 mb)
SSE 15 mph
(SSE 24 kph)
- 10SM
06:53
Overcast
61°F / 16°C 55°F / 13°C 83% 29.95 in
(1014 mb)
SSE 13.8 mph
(SSE 22 kph)
- 10SM
06:20
Overcast
61°F / 16°C 55°F / 13°C 83% 29.92 in
(1013 mb)
SE 13.8 mph
(SE 22 kph)
- 10SM
05:53
Overcast
61°F / 16°C 55°F / 13°C 83% 29.95 in
(1014 mb)
SSE 13.8 mph
(SSE 22 kph)
- 10SM
04:53
Overcast
61°F / 16°C 55°F / 13°C 83% 29.95 in
(1014 mb)
SSE 12.7 mph
(SSE 20 kph)
- 10SM
03:53
Overcast
61°F / 16°C 55°F / 13°C 83% 29.95 in
(1014 mb)
SSE 11.5 mph
(SSE 19 kph)
- 10SM
03:22
Overcast
61°F / 16°C 55°F / 13°C 83% 29.95 in
(1014 mb)
SSE 15 mph
(SSE 24 kph)
- 10SM
02:53
Overcast
61°F / 16°C 57°F / 14°C 88% 29.98 in
(1015 mb)
SSE 16.1 mph
(SSE 26 kph)
- 10SM
02:30
Overcast
59°F / 15°C 55°F / 13°C 88% 29.98 in
(1015 mb)
SSE 16.1 mph
(SSE 26 kph)
- 10SM
02:17
Mostly Cloudy
57°F / 14°C 55°F / 13°C 94% 29.98 in
(1015 mb)
SSE 13.8 mph
(SSE 22 kph)
- 8SM
01:53
Clear
Fog And Mist
57°F / 14°C 55°F / 13°C 94% 29.98 in
(1015 mb)
SE 11.5 mph
(SE 19 kph)
- 4SM
00:53
Clear
Fog And Mist
57°F / 14°C 55°F / 13°C 94% 29.98 in
(1015 mb)
SE 9.2 mph
(SE 15 kph)
- 5SM
Time Weather Temperature Dewpoint Humidity Pressure Winds Precip Visibility


Weather for websites

WeatherForYou.com, LLC is not responsible for any damages or problems caused by this service. Current weather conditions are obtained from the closest station including government and personal stations which may have varying degrees of accuracy. Weather forecasts are derived from the NOAA NDFD. Like all things, this site belongs to Jesus Christ... He just trusts me to maintain it. If you have any questions or comments email webmaster@weatherforyou.com

Copyright © 2014, WeatherForYou.com LLC. All rights reserved.